Time,TemperatureF,DewpointF,PressureIn,WindDirection,WindDirectionDegrees,WindSpeedMPH,WindSpeedGustMPH,Humidity,HourlyPrecipIn,Conditions,Clouds,dailyrainin,SoftwareType,DateUTC
2013-03-05 00:05:00,15.2,1.0,30.25,WNW,290,11.0,22.0,53,0.00,,,0.00,weatherlink.com 1.10,2013-03-05 07:05:00,
2013-03-05 00:20:00,14.8,1.0,30.26,WSW,240,5.0,21.0,54,0.00,,,0.00,weatherlink.com 1.10,2013-03-05 07:20:00,
2013-03-05 00:35:00,14.5,1.0,30.27,SW,226,9.0,15.0,54,0.00,,,0.00,weatherlink.com 1.10,2013-03-05 07:35:00,
2013-03-05 00:50:00,14.6,1.0,30.28,SW,215,8.0,14.0,54,0.00,,,0.00,weatherlink.com 1.10,2013-03-05 07:50:00,
2013-03-05 01:05:00,14.4,0.0,30.29,WSW,242,7.0,12.0,54,0.00,,,0.00,weatherlink.com 1.10,2013-03-05 08:05:00,
2013-03-05 01:20:00,14.8,0.0,30.29,West,280,2.0,11.0,52,0.00,,,0.00,weatherlink.com 1.10,2013-03-05 08:20:00,
2013-03-05 01:35:00,14.2,0.0,30.30,NW,306,1.0,8.0,53,0.00,,,0.00,weatherlink.com 1.10,2013-03-05 08:35:00,
2013-03-05 01:50:00,14.3,-1.0,30.30,West,274,2.0,6.0,51,0.00,,,0.00,weatherlink.com 1.10,2013-03-05 08:50:00,
2013-03-05 02:05:00,13.7,-2.0,30.28,SW,226,6.0,9.0,51,0.00,,,0.00,weatherlink.com 1.10,2013-03-05 09:05:00,
2013-03-05 02:20:00,13.6,-2.0,30.29,South,187,4.0,7.0,50,0.00,,,0.00,weatherlink.com 1.10,2013-03-05 09:20:00,
2013-03-05 02:35:00,13.7,-2.0,30.29,SW,217,3.0,9.0,49,0.00,,,0.00,weatherlink.com 1.10,2013-03-05 09:35:00,
2013-03-05 02:50:00,13.2,-2.0,30.29,SSE,148,1.0,8.0,51,0.00,,,0.00,weatherlink.com 1.10,2013-03-05 09:50:00,
2013-03-05 03:05:00,13.0,-2.0,30.29,WSW,243,1.0,11.0,51,0.00,,,0.00,weatherlink.com 1.10,2013-03-05 10:05:00,
2013-03-05 03:20:00,13.3,-2.0,30.30,ESE,121,2.0,9.0,50,0.00,,,0.00,weatherlink.com 1.10,2013-03-05 10:20:00,
2013-03-05 03:35:00,13.8,-3.0,30.31,SSW,208,2.0,8.0,47,0.00,,,0.00,weatherlink.com 1.10,2013-03-05 10:35:00,
2013-03-05 03:50:00,14.8,-4.0,30.30,ESE,115,5.0,10.0,43,0.00,,,0.00,weatherlink.com 1.10,2013-03-05 10:50:00,
2013-03-05 04:06:00,15.3,-5.0,30.31,ENE,67,4.0,9.0,41,0.00,,,0.00,weatherlink.com 1.10,2013-03-05 11:06:00,
2013-03-05 04:21:00,15.5,-6.0,30.33,SE,127,9.0,12.0,39,0.00,,,0.00,weatherlink.com 1.10,2013-03-05 11:21:00,
2013-03-05 04:36:00,14.8,-6.0,30.33,NNE,12,0.0,5.0,40,0.00,,,0.00,weatherlink.com 1.10,2013-03-05 11:36:00,
2013-03-05 04:51:00,15.2,-6.0,30.34,SE,145,2.0,7.0,38,0.00,,,0.00,weatherlink.com 1.10,2013-03-05 11:51:00,
2013-03-05 05:06:00,15.4,-7.0,30.36,WSW,256,1.0,8.0,37,0.00,,,0.00,weatherlink.com 1.10,2013-03-05 12:06:00,
2013-03-05 05:21:00,16.4,-6.0,30.36,East,87,0.0,8.0,37,0.00,,,0.00,weatherlink.com 1.10,2013-03-05 12:21:00,
2013-03-05 05:36:00,15.5,-6.0,30.36,SE,131,4.0,9.0,38,0.00,,,0.00,weatherlink.com 1.10,2013-03-05 12:36:00,
2013-03-05 05:51:00,15.3,-6.0,30.37,SW,218,2.0,11.0,39,0.00,,,0.00,weatherlink.com 1.10,2013-03-05 12:51:00,
2013-03-05 06:06:00,15.1,-6.0,30.38,West,276,0.0,4.0,38,0.00,,,0.00,weatherlink.com 1.10,2013-03-05 13:06:00,
2013-03-05 06:21:00,15.4,-7.0,30.38,SE,139,1.0,8.0,36,0.00,,,0.00,weatherlink.com 1.10,2013-03-05 13:21:00,
2013-03-05 06:36:00,17.0,-7.0,30.39,West,273,1.0,12.0,34,0.00,,,0.00,weatherlink.com 1.10,2013-03-05 13:36:00,
2013-03-05 06:51:00,18.3,-8.0,30.39,East,98,4.0,14.0,30,0.00,,,0.00,weatherlink.com 1.10,2013-03-05 13:51:00,
2013-03-05 07:06:00,19.2,-9.0,30.40,West,277,1.0,8.0,28,0.00,,,0.00,weatherlink.com 1.10,2013-03-05 14:06:00,
2013-03-05 07:21:00,21.9,-9.0,30.40,East,98,3.0,5.0,25,0.00,,,0.00,weatherlink.com 1.10,2013-03-05 14:21:00,
2013-03-05 07:36:00,22.8,-9.0,30.41,ESE,113,6.0,9.0,24,0.00,,,0.00,weatherlink.com 1.10,2013-03-05 14:36:00,
2013-03-05 07:51:00,24.0,-8.0,30.43,SSE,156,3.0,8.0,24,0.00,,,0.00,weatherlink.com 1.10,2013-03-05 14:51:00,
2013-03-05 08:06:00,25.6,-8.0,30.43,NE,56,2.0,5.0,23,0.00,,,0.00,weatherlink.com 1.10,2013-03-05 15:06:00,
2013-03-05 08:21:00,27.3,-10.0,30.44,ESE,108,4.0,8.0,19,0.00,,,0.00,weatherlink.com 1.10,2013-03-05 15:21:00,
2013-03-05 08:36:00,27.3,-10.0,30.43,WSW,240,2.0,18.0,19,0.00,,,0.00,weatherlink.com 1.10,2013-03-05 15:36:00,
2013-03-05 08:51:00,28.9,-9.0,30.44,SSE,159,6.0,14.0,19,0.00,,,0.00,weatherlink.com 1.10,2013-03-05 15:51:00,
2013-03-05 09:06:00,30.3,-9.0,30.45,SSE,158,0.0,10.0,18,0.00,,,0.00,weatherlink.com 1.10,2013-03-05 16:06:00,
2013-03-05 09:21:00,30.7,-8.0,30.45,SSE,158,2.0,7.0,18,0.00,,,0.00,weatherlink.com 1.10,2013-03-05 16:21:00,
2013-03-05 09:36:00,31.8,-7.0,30.45,SSE,148,6.0,8.0,18,0.00,,,0.00,weatherlink.com 1.10,2013-03-05 16:36:00,
2013-03-05 09:52:00,32.0,-7.0,30.45,ESE,104,1.0,7.0,18,0.00,,,0.00,weatherlink.com 1.10,2013-03-05 16:52:00,
2013-03-05 10:07:00,33.2,-7.0,30.45,ESE,108,1.0,7.0,17,0.00,,,0.00,weatherlink.com 1.10,2013-03-05 17:07:00,
2013-03-05 10:22:00,33.5,-5.0,30.45,SSE,153,3.0,9.0,19,0.00,,,0.00,weatherlink.com 1.10,2013-03-05 17:22:00,
2013-03-05 10:52:00,34.6,-9.0,30.44,SW,232,6.0,15.0,15,0.00,,,0.00,weatherlink.com 1.10,2013-03-05 17:52:00,
2013-03-05 11:07:00,34.9,-9.0,30.43,WNW,283,11.0,18.0,15,0.00,,,0.00,weatherlink.com 1.10,2013-03-05 18:07:00,
2013-03-05 11:22:00,35.7,-8.0,30.43,West,271,5.0,11.0,15,0.00,,,0.00,weatherlink.com 1.10,2013-03-05 18:22:00,
2013-03-05 11:37:00,36.0,-3.0,30.43,East,84,0.0,7.0,19,0.00,,,0.00,weatherlink.com 1.10,2013-03-05 18:37:00,
2013-03-05 11:52:00,38.0,-3.0,30.42,SE,142,4.0,7.0,17,0.00,,,0.00,weatherlink.com 1.10,2013-03-05 18:52:00,
2013-03-05 12:07:00,38.9,-7.0,30.41,SE,127,0.0,13.0,14,0.01,,,0.01,weatherlink.com 1.10,2013-03-05 19:07:00,
2013-03-05 12:22:00,40.0,-4.0,30.40,SSW,198,3.0,9.0,15,0.01,,,0.01,weatherlink.com 1.10,2013-03-05 19:22:00,
2013-03-05 12:37:00,40.9,-5.0,30.39,SSW,212,9.0,13.0,14,0.01,,,0.01,weatherlink.com 1.10,2013-03-05 19:37:00,
2013-03-05 12:52:00,41.4,-5.0,30.38,SE,134,6.0,11.0,14,0.01,,,0.01,weatherlink.com 1.10,2013-03-05 19:52:00,
2013-03-05 13:07:00,41.6,-6.0,30.38,SE,135,2.0,9.0,13,0.00,,,0.01,weatherlink.com 1.10,2013-03-05 20:07:00,
2013-03-05 13:22:00,41.5,-10.0,30.39,SW,233,2.0,12.0,11,0.01,,,0.02,weatherlink.com 1.10,2013-03-05 20:22:00,
2013-03-05 13:37:00,41.7,-6.0,30.38,WNW,291,2.0,10.0,13,0.01,,,0.02,weatherlink.com 1.10,2013-03-05 20:37:00,
2013-03-05 13:52:00,42.8,-2.0,30.38,SW,228,0.0,8.0,15,0.01,,,0.02,weatherlink.com 1.10,2013-03-05 20:52:00,
2013-03-05 14:07:00,42.9,-5.0,30.37,ESE,123,0.0,8.0,13,0.01,,,0.02,weatherlink.com 1.10,2013-03-05 21:07:00,
2013-03-05 14:22:00,43.4,-3.0,30.37,ESE,114,4.0,9.0,14,0.00,,,0.02,weatherlink.com 1.10,2013-03-05 21:22:00,
2013-03-05 14:37:00,42.0,-7.0,30.36,NNW,332,9.0,11.0,12,0.00,,,0.02,weatherlink.com 1.10,2013-03-05 21:37:00,
2013-03-05 14:52:00,42.9,-1.0,30.37,SW,232,0.0,18.0,16,0.00,,,0.02,weatherlink.com 1.10,2013-03-05 21:52:00,
2013-03-05 15:07:00,43.3,-8.0,30.36,NW,315,3.0,12.0,11,0.00,,,0.02,weatherlink.com 1.10,2013-03-05 22:07:00,
2013-03-05 15:22:00,42.9,-5.0,30.36,SSW,212,3.0,7.0,13,0.00,,,0.02,weatherlink.com 1.10,2013-03-05 22:22:00,
2013-03-05 15:37:00,43.1,-7.0,30.35,SSW,211,4.0,10.0,12,0.00,,,0.02,weatherlink.com 1.10,2013-03-05 22:37:00,
2013-03-05 15:52:00,43.3,-6.0,30.35,SW,216,5.0,9.0,12,0.00,,,0.02,weatherlink.com 1.10,2013-03-05 22:52:00,
2013-03-05 16:07:00,43.6,-6.0,30.34,SSW,200,5.0,9.0,12,0.00,,,0.02,weatherlink.com 1.10,2013-03-05 23:07:00,
2013-03-05 16:22:00,44.3,-6.0,30.33,South,186,3.0,8.0,12,0.00,,,0.02,weatherlink.com 1.10,2013-03-05 23:22:00,
2013-03-05 16:37:00,43.7,-6.0,30.32,NW,308,1.0,6.0,12,0.00,,,0.02,weatherlink.com 1.10,2013-03-05 23:37:00,
2013-03-05 16:52:00,43.6,-8.0,30.32,NNW,328,0.0,2.0,11,0.00,,,0.02,weatherlink.com 1.10,2013-03-05 23:52:00,
2013-03-05 17:07:00,44.1,-12.0,30.32,SE,146,0.0,7.0,9,0.00,,,0.02,weatherlink.com 1.10,2013-03-06 00:07:00,
2013-03-05 17:22:00,42.5,-7.0,30.31,SSW,207,1.0,3.0,12,0.00,,,0.02,weatherlink.com 1.10,2013-03-06 00:22:00,
2013-03-05 17:37:00,40.3,-9.0,30.31,SSW,204,0.0,3.0,12,0.00,,,0.02,weatherlink.com 1.10,2013-03-06 00:37:00,
2013-03-05 17:52:00,36.0,-5.0,30.31,SSW,212,2.0,4.0,17,0.00,,,0.02,weatherlink.com 1.10,2013-03-06 00:52:00,
2013-03-05 18:07:00,34.3,-5.0,30.30,SSW,207,5.0,7.0,18,0.00,,,0.02,weatherlink.com 1.10,2013-03-06 01:07:00,
2013-03-05 18:22:00,33.3,-4.0,30.30,SSW,205,5.0,9.0,20,0.00,,,0.02,weatherlink.com 1.10,2013-03-06 01:22:00,
2013-03-05 18:37:00,33.9,-7.0,30.30,WSW,246,0.0,10.0,17,0.00,,,0.02,weatherlink.com 1.10,2013-03-06 01:37:00,
2013-03-05 18:52:00,32.7,-7.0,30.30,SW,226,1.0,5.0,18,0.00,,,0.02,weatherlink.com 1.10,2013-03-06 01:52:00,
2013-03-05 19:07:00,31.5,-5.0,30.30,WSW,248,0.0,3.0,20,0.00,,,0.02,weatherlink.com 1.10,2013-03-06 02:07:00,
2013-03-05 19:22:00,31.1,-6.0,30.29,WNW,295,1.0,4.0,20,0.00,,,0.02,weatherlink.com 1.10,2013-03-06 02:22:00,
2013-03-05 19:37:00,29.8,-6.0,30.28,SSE,167,0.0,3.0,21,0.00,,,0.02,weatherlink.com 1.10,2013-03-06 02:37:00,
2013-03-05 19:52:00,28.1,-2.0,30.28,ESE,120,0.0,1.0,27,0.00,,,0.02,weatherlink.com 1.10,2013-03-06 02:52:00,
2013-03-05 20:07:00,26.8,-1.0,30.28,East,87,0.0,2.0,30,0.00,,,0.02,weatherlink.com 1.10,2013-03-06 03:07:00,
2013-03-05 20:22:00,26.7,-2.0,30.28,SSE,166,0.0,4.0,29,0.00,,,0.02,weatherlink.com 1.10,2013-03-06 03:22:00,
2013-03-05 20:37:00,26.7,-1.0,30.28,SE,139,1.0,6.0,30,0.00,,,0.02,weatherlink.com 1.10,2013-03-06 03:37:00,
2013-03-05 20:52:00,26.7,-2.0,30.28,SSW,194,1.0,4.0,29,0.00,,,0.02,weatherlink.com 1.10,2013-03-06 03:52:00,
2013-03-05 21:08:00,26.5,-1.0,30.28,SSW,211,0.0,4.0,30,0.00,,,0.02,weatherlink.com 1.10,2013-03-06 04:08:00,
2013-03-05 21:23:00,25.9,-1.0,30.28,SSW,192,0.0,4.0,31,0.00,,,0.02,weatherlink.com 1.10,2013-03-06 04:23:00,
2013-03-05 21:38:00,26.2,-1.0,30.28,South,188,2.0,5.0,31,0.00,,,0.02,weatherlink.com 1.10,2013-03-06 04:38:00,
2013-03-05 21:53:00,25.8,0.0,30.28,SSE,156,0.0,7.0,33,0.00,,,0.02,weatherlink.com 1.10,2013-03-06 04:53:00,
2013-03-05 22:08:00,25.2,0.0,30.27,WSW,243,5.0,7.0,33,0.00,,,0.02,weatherlink.com 1.10,2013-03-06 05:08:00,
2013-03-05 22:23:00,25.3,0.0,30.27,SE,141,2.0,7.0,33,0.00,,,0.02,weatherlink.com 1.10,2013-03-06 05:23:00,
2013-03-05 22:38:00,24.8,0.0,30.27,South,191,1.0,6.0,34,0.00,,,0.02,weatherlink.com 1.10,2013-03-06 05:38:00,
2013-03-05 22:53:00,24.6,0.0,30.26,South,188,1.0,7.0,34,0.00,,,0.02,weatherlink.com 1.10,2013-03-06 05:53:00,
2013-03-05 23:08:00,24.0,0.0,30.25,SSE,159,0.0,4.0,35,0.00,,,0.02,weatherlink.com 1.10,2013-03-06 06:08:00,
2013-03-05 23:23:00,23.8,0.0,30.25,East,82,1.0,6.0,36,0.00,,,0.02,weatherlink.com 1.10,2013-03-06 06:23:00,
2013-03-05 23:38:00,23.4,1.0,30.24,South,190,1.0,5.0,37,0.00,,,0.02,weatherlink.com 1.10,2013-03-06 06:38:00,
2013-03-05 23:53:00,23.0,0.0,30.24,SE,135,0.0,2.0,37,0.00,,,0.02,weatherlink.com 1.10,2013-03-06 06:53:00,